EA4BCR Weather Reports


Display with metric or nautical units.
time (UTC)temp
F
wind
direction
speed
MPH
gust
MPH
rain 1hr
in
rain 24hr
in
rain mn
in
humidity
%
barometer
mb
20260503024653 60 0.0 0.0 0.00 0.00 0.00 10 1014.4
20260503023654 61 0.0 0.0 0.00 0.00 0.00 10 1014.3
20260503022654 62 0.0 0.0 0.00 0.00 0.00 10 1014.0
20260503021653 61 0.0 0.0 0.00 0.00 0.00 10 1014.2
20260503020653 62 0.0 0.0 0.00 0.00 0.00 10 1014.1
20260503015653 62 0.0 0.0 0.00 0.00 0.00 10 1014.1
20260503014653 61 0.0 0.0 0.00 0.00 0.00 10 1014.2
20260503013653 62 0.0 0.0 0.00 0.00 0.00 10 1014.1
20260503012653 62 0.0 0.0 0.00 0.00 0.00 10 1014.2
20260503011653 62 0.0 0.0 0.00 0.00 0.00 10 1014.4
20260503010653 62 0.0 0.0 0.00 0.00 0.00 10 1014.3
20260503005653 62 0.0 0.0 0.00 0.00 0.00 10 1014.6
20260503004653 62 0.0 0.0 0.00 0.00 0.00 10 1014.7
20260503003653 62 0.0 0.0 0.00 0.00 0.00 10 1014.7
20260503002653 62 0.0 0.0 0.00 0.00 0.00 10 1014.8
20260503001653 62 0.0 0.0 0.00 0.00 0.00 10 1014.9
20260503000653 62 0.0 0.0 0.00 0.00 0.00 10 1015.1
20260502235653 62 0.0 0.0 0.00 0.00 0.00 10 1015.1
20260502234653 62 0.0 0.0 0.00 0.00 0.00 10 1015.2
20260502233653 62 0.0 0.0 0.00 0.00 0.00 10 1015.2
20260502232653 62 0.0 0.0 0.00 0.00 0.00 10 1015.4
20260502231654 62 0.0 0.0 0.00 0.00 0.00 10 1015.5
20260502230653 61 0.0 0.0 0.00 0.00 0.00 10 1015.6
20260502225653 61 0.0 0.0 0.00 0.00 0.00 10 1015.6
20260502224653 61 0.0 0.0 0.00 0.00 0.00 10 1015.9
20260502223654 61 0.0 0.0 0.00 0.00 0.00 10 1016.0
20260502222653 61 0.0 0.0 0.00 0.00 0.00 10 1016.1
20260502221653 61 0.0 0.0 0.00 0.00 0.00 10 1015.8
20260502220653 61 0.0 0.0 0.00 0.00 0.00 10 1015.8
20260502215653 61 0.0 0.0 0.00 0.00 0.00 10 1015.9
20260502214653 61 0.0 0.0 0.00 0.00 0.00 10 1015.9
20260502213653 61 0.0 0.0 0.00 0.00 0.00 10 1016.0
20260502212653 61 0.0 0.0 0.00 0.00 0.00 10 1016.0
20260502211653 61 0.0 0.0 0.00 0.00 0.00 10 1015.9
20260502210653 59 0.0 0.0 0.00 0.00 0.00 10 1016.2
20260502205653 58 0.0 0.0 0.00 0.00 0.00 10 1016.5
20260502204653 58 0.0 0.0 0.00 0.00 0.00 10 1016.3
20260502203653 58 0.0 0.0 0.00 0.00 0.00 10 1016.5
20260502202653 56 0.0 0.0 0.00 0.00 0.00 10 1016.5
20260502201653 59 0.0 0.0 0.00 0.00 0.00 10 1015.9
20260502200653 64 0.0 0.0 0.00 0.00 0.00 10 1014.9
20260502195653 64 0.0 0.0 0.00 0.00 0.00 10 1014.5
20260502194653 64 0.0 0.0 0.00 0.00 0.00 10 1014.5
20260502193653 64 0.0 0.0 0.00 0.00 0.00 10 1014.0
20260502192653 64 0.0 0.0 0.00 0.00 0.00 10 1014.0
20260502191653 63 0.0 0.0 0.00 0.00 0.00 10 1014.3
20260502190653 63 0.0 0.0 0.00 0.00 0.00 10 1014.0
20260502185653 63 0.0 0.0 0.00 0.00 0.00 10 1013.9
20260502184653 63 0.0 0.0 0.00 0.00 0.00 10 1013.9
20260502183653 63 0.0 0.0 0.00 0.00 0.00 10 1013.8
20260502182653 62 0.0 0.0 0.00 0.00 0.00 10 1014.2
20260502181653 63 0.0 0.0 0.00 0.00 0.00 10 1014.2
20260502180653 63 0.0 0.0 0.00 0.00 0.00 10 1014.0
20260502163653 67 0.0 0.0 0.00 0.00 0.00 64 1013.4
20260502162653 68 0.0 0.0 0.00 0.00 0.00 61 1013.2
20260502161653 67 0.0 0.0 0.00 0.00 0.00 61 1013.3
20260502160653 67 0.0 0.0 0.00 0.00 0.00 61 1013.5
20260502151653 68 0.0 0.0 0.00 0.00 0.00 58 1013.7
20260502150653 69 0.0 0.0 0.00 0.00 0.00 57 1013.8
20260502130653 66 0.0 0.0 0.00 0.00 0.00 64 1016.4
20260502123653 66 0.0 0.0 0.00 0.00 0.00 64 1016.5
20260502122653 65 0.0 0.0 0.00 0.00 0.00 65 1016.9
20260502121653 66 0.0 0.0 0.00 0.00 0.00 64 1016.8
20260502120656 64 0.0 0.0 0.00 0.00 0.00 65 1017.4
20260502115654 65 0.0 0.0 0.00 0.00 0.00 65 1017.4
20260502114653 65 0.0 0.0 0.00 0.00 0.00 67 1017.0
20260502113653 65 0.0 0.0 0.00 0.00 0.00 66 1016.7
20260502112653 65 0.0 0.0 0.00 0.00 0.00 66 1017.1
20260502111653 65 0.0 0.0 0.00 0.00 0.00 69 1017.4
20260502110653 64 0.0 0.0 0.00 0.00 0.00 71 1017.7
20260502105653 63 0.0 0.0 0.00 0.00 0.00 72 1018.1
20260502104653 63 0.0 0.0 0.00 0.00 0.00 73 1018.1
20260502103653 64 0.0 0.0 0.00 0.00 0.00 70 1017.9
20260502102653 64 0.0 0.0 0.00 0.00 0.00 69 1018.2
20260502101653 66 0.0 0.0 0.00 0.00 0.00 66 1017.7
20260502100654 64 0.0 0.0 0.00 0.00 0.00 70 1017.9
20260502090653 63 0.0 0.0 0.00 0.00 0.00 77 1018.2
20260502070653 61 0.0 0.0 0.00 0.00 0.00 98 1019.3
20260502065653 60 0.0 0.0 0.00 0.00 0.00 10 1019.4
20260502064653 61 0.0 0.0 0.00 0.00 0.00 99 1019.1
20260502063653 60 0.0 0.0 0.00 0.00 0.00 10 1019.4
20260502062653 60 0.0 0.0 0.00 0.00 0.00 10 1019.3
20260502061653 59 0.0 0.0 0.00 0.00 0.00 10 1019.4
20260502060653 59 0.0 0.0 0.00 0.00 0.00 10 1019.4
20260502055652 59 0.0 0.0 0.00 0.00 0.00 10 1019.3
20260502054653 59 0.0 0.0 0.00 0.00 0.00 10 1019.6
20260502053653 59 0.0 0.0 0.00 0.00 0.00 10 1019.6
20260502052653 60 0.0 0.0 0.00 0.00 0.00 98 1019.0
20260502051653 60 0.0 0.0 0.00 0.00 0.00 10 1019.1
20260502050652 60 0.0 0.0 0.00 0.00 0.00 10 1019.2
20260502045653 60 0.0 0.0 0.00 0.00 0.00 10 1019.3
20260502044653 60 0.0 0.0 0.00 0.00 0.00 10 1019.5
20260502043653 60 0.0 0.0 0.00 0.00 0.00 10 1019.4
20260502042653 60 0.0 0.0 0.00 0.00 0.00 99 1019.5
20260502041652 60 0.0 0.0 0.00 0.00 0.00 99 1019.4
20260502040653 60 0.0 0.0 0.00 0.00 0.00 10 1019.6
20260502035654 60 0.0 0.0 0.00 0.00 0.00 10 1019.8
20260502034653 60 0.0 0.0 0.00 0.00 0.00 97 1019.8
20260502033653 61 0.0 0.0 0.00 0.00 0.00 95 1019.7
20260502032653 61 0.0 0.0 0.00 0.00 0.00 96 1019.5
20260502031652 61 0.0 0.0 0.00 0.00 0.00 93 1019.5
20260502030652 61 0.0 0.0 0.00 0.00 0.00 93 1019.4
20260502025652 59 0.0 0.0 0.00 0.00 0.00 10 1019.9